Location: *
(51.1248°S, 108.4023°W)
Time: 04:59:09
(UTC+00:00)

IRS-1C Rocket - Visible Passes

Search period start: 19 October 2021 00:00
Search period end: 29 October 2021 00:00
Orbit: 800 x 806 km, 98.9° (Epoch: 18 October)

Date Brightness Start Highest point End Pass type
(mag) Time Alt. Az. Time Alt. Az. Time Alt. Az.
19 Oct 4.1 03:37:16 10° SSE 03:42:40 88° WSW 03:47:58 10° NNW visible
19 Oct 6.7 05:18:04 10° S 05:21:40 19° SW 05:25:15 10° W visible
20 Oct 4.2 03:11:35 10° SSE 03:16:53 60° ENE 03:22:07 10° N visible
20 Oct 6.1 04:51:50 10° S 04:56:15 27° WSW 05:00:38 10° WNW visible
21 Oct 4.6 02:46:03 10° SSE 02:51:01 38° E 02:55:55 10° NNE visible
21 Oct 5.4 04:25:48 10° S 04:30:45 40° WSW 04:35:40 10° NW visible
22 Oct 4.6 03:59:53 10° S 04:05:10 61° WSW 04:10:23 10° NNW visible
22 Oct 6.9 05:41:20 10° SSW 05:43:52 14° SW 05:46:23 10° WSW visible
23 Oct 4.1 03:34:05 10° SSE 03:39:28 87° ENE 03:44:47 10° NNW visible
23 Oct 6.6 05:14:48 10° S 05:18:32 20° SW 05:22:15 10° W visible
24 Oct 4.2 03:08:25 10° SSE 03:13:41 56° E 03:18:53 10° N visible
24 Oct 6.1 04:48:36 10° S 04:53:07 28° WSW 04:57:35 10° WNW visible
25 Oct 4.7 02:42:54 10° SSE 02:47:48 35° E 02:52:38 10° NNE visible
25 Oct 5.3 04:22:34 10° S 04:27:35 42° WSW 04:32:34 10° NW visible
26 Oct 4.5 03:56:41 10° S 04:01:59 65° WSW 04:07:14 10° NNW visible
26 Oct 6.9 05:38:00 10° SSW 05:40:44 14° SW 05:43:28 10° W visible
27 Oct 4.1 03:30:54 10° SSE 03:36:17 82° ENE 03:41:36 10° NNW visible
27 Oct 6.6 05:11:32 10° S 05:15:24 21° SW 05:19:14 10° W visible
28 Oct 4.3 03:05:15 10° SSE 03:10:29 52° E 03:15:39 10° N visible
28 Oct 6.0 04:45:22 10° S 04:49:57 30° WSW 04:54:31 10° WNW visible
